time, Switch, Flow(0), Analog(2)
yyyy/mm/dd HH:MM:SS.fff, True=FILTERED|False=TOTAL, L/min, V
2023/06/10 21:00:05.256, True, 0.674, 0.135119
2023/06/10 21:00:05.760, True, 0.996, 0.135424
2023/06/10 21:00:06.264, True, 0.663, 0.136873
2023/06/10 21:00:06.760, True, 1.010, 0.137713
2023/06/10 21:00:07.264, True, 0.663, 0.137560
2023/06/10 21:00:07.768, True, 0.663, 0.134966
2023/06/10 21:00:08.263, True, 1.011, 0.139467
2023/06/10 21:00:08.768, True, 0.663, 0.137942
2023/06/10 21:00:09.271, True, 0.663, 0.136950
2023/06/10 21:00:09.767, True, 0.674, 0.136339
2023/06/10 21:00:10.271, True, 0.995, 0.135424
2023/06/10 21:00:10.775, True, 0.663, 0.135958
2023/06/10 21:00:11.271, True, 0.674, 0.136568
2023/06/10 21:00:11.775, True, 0.663, 0.137636
2023/06/10 21:00:12.280, True, 0.995, 0.136797
2023/06/10 21:00:12.776, True, 0.675, 0.137179
2023/06/10 21:00:13.280, True, 0.662, 0.136950
2023/06/10 21:00:13.783, True, 0.995, 0.134508
2023/06/10 21:00:14.279, True, 0.674, 0.135805
2023/06/10 21:00:14.783, True, 0.663, 0.138247
2023/06/10 21:00:15.288, True, 0.663, 0.137636
2023/06/10 21:00:15.784, True, 0.674, 0.136416
2023/06/10 21:00:16.288, True, 0.995, 0.136873
2023/06/10 21:00:16.791, True, 0.664, 0.137942
2023/06/10 21:00:17.288, True, 0.673, 0.135348
2023/06/10 21:00:17.792, True, 0.664, 0.135576
2023/06/10 21:00:18.295, True, 0.993, 0.136645
2023/06/10 21:00:18.791, True, 0.675, 0.134890
2023/06/10 21:00:19.296, True, 0.662, 0.135576
2023/06/10 21:00:19.799, True, 0.664, 0.136034
2023/06/10 21:00:20.303, True, 0.663, 0.136950
2023/06/10 21:00:20.800, True, 1.012, 0.138323
2023/06/10 21:00:21.303, True, 0.663, 0.137942
2023/06/10 21:00:21.807, True, 0.663, 0.134737
2023/06/10 21:00:22.304, True, 0.674, 0.137407
2023/06/10 21:00:22.808, True, 0.664, 0.138094
2023/06/10 21:00:23.312, True, 0.994, 0.135042
2023/06/10 21:00:23.816, True, 0.664, 0.135729
2023/06/10 21:00:24.312, True, 0.673, 0.134432
2023/06/10 21:00:24.816, True, 0.995, 0.136034
2023/06/10 21:00:25.320, True, 0.664, 0.136721
2023/06/10 21:00:25.816, True, 0.673, 0.136721
2023/06/10 21:00:26.320, True, 0.663, 0.135958
2023/06/10 21:00:26.824, True, 0.995, 0.136339
2023/06/10 21:00:27.320, True, 0.674, 0.138247
2023/06/10 21:00:27.824, True, 0.663, 0.136416
2023/06/10 21:00:28.320, True, 0.674, 0.138247
2023/06/10 21:00:28.824, True, 0.663, 0.137407
2023/06/10 21:00:29.328, True, 0.995, 0.135805
2023/06/10 21:00:29.824, True, 0.675, 0.136950
2023/06/10 21:00:30.328, True, 0.662, 0.136797
2023/06/10 21:00:30.824, True, 0.674, 0.136721
2023/06/10 21:00:31.328, True, 0.663, 0.138476
2023/06/10 21:00:31.831, True, 0.995, 0.136568
2023/06/10 21:00:32.328, True, 0.674, 0.137713
2023/06/10 21:00:32.832, True, 0.664, 0.136492
2023/06/10 21:00:33.336, True, 0.993, 0.135653
2023/06/10 21:00:33.832, True, 0.674, 0.136492
2023/06/10 21:00:34.336, True, 0.663, 0.134585
2023/06/10 21:00:34.840, True, 0.663, 0.137179
2023/06/10 21:00:35.336, True, 0.674, 0.138094
2023/06/10 21:00:35.840, True, 0.994, 0.135348
2023/06/10 21:00:36.344, True, 0.663, 0.137255
2023/06/10 21:00:36.840, True, 0.674, 0.136416
2023/06/10 21:00:37.344, True, 0.663, 0.137713
2023/06/10 21:00:37.840, True, 1.011, 0.136034
2023/06/10 21:00:38.344, True, 0.663, 0.136416
2023/06/10 21:00:38.848, True, 0.663, 0.139086
2023/06/10 21:00:39.344, True, 0.674, 0.139315
2023/06/10 21:00:39.848, True, 0.995, 0.136950
2023/06/10 21:00:40.352, True, 0.664, 0.135424
2023/06/10 21:00:40.848, True, 0.673, 0.135653
2023/06/10 21:00:41.352, True, 0.663, 0.135653
2023/06/10 21:00:41.856, True, 0.663, 0.137560
2023/06/10 21:00:42.352, True, 1.011, 0.135576
2023/06/10 21:00:42.856, True, 0.663, 0.137713
2023/06/10 21:00:43.352, True, 0.674, 0.136416
2023/06/10 21:00:43.856, True, 0.663, 0.138781
2023/06/10 21:00:44.360, True, 0.663, 0.138933
2023/06/10 21:00:44.856, True, 1.011, 0.137255
2023/06/10 21:00:45.360, True, 0.663, 0.137942
2023/06/10 21:00:45.864, True, 0.663, 0.138857
2023/06/10 21:00:46.360, True, 0.674, 0.136873
2023/06/10 21:00:46.864, True, 0.995, 0.134890
2023/06/10 21:00:47.368, True, 0.664, 0.135195
2023/06/10 21:00:47.863, True, 0.674, 0.138170
2023/06/10 21:00:48.367, True, 0.664, 0.137331
2023/06/10 21:00:48.872, True, 0.662, 0.136110
2023/06/10 21:00:49.368, True, 1.011, 0.137865
2023/06/10 21:00:49.872, True, 0.663, 0.136416
2023/06/10 21:00:50.376, True, 0.663, 0.137865
2023/06/10 21:00:50.872, True, 0.674, 0.136950
2023/06/10 21:00:51.376, True, 0.663, 0.137026
2023/06/10 21:00:51.880, True, 0.663, 0.135424
2023/06/10 21:00:52.375, True, 0.674, 0.136645
2023/06/10 21:00:52.880, True, 0.663, 0.136492
2023/06/10 21:00:53.376, True, 1.011, 0.136568
2023/06/10 21:00:53.880, True, 0.664, 0.136721
2023/06/10 21:00:54.384, True, 0.662, 0.137942
2023/06/10 21:00:54.888, True, 0.663, 0.136645
2023/06/10 21:00:55.384, True, 1.011, 0.139315
2023/06/10 21:00:55.888, True, 0.663, 0.136568
2023/06/10 21:00:56.392, True, 0.663, 0.137484
2023/06/10 21:00:56.888, True, 0.674, 0.136797
2023/06/10 21:00:57.392, True, 0.663, 0.135195
2023/06/10 21:00:57.896, True, 0.995, 0.137255
2023/06/10 21:00:58.392, True, 0.674, 0.134813
2023/06/10 21:00:58.896, True, 0.664, 0.136950
2023/06/10 21:00:59.400, True, 0.662, 0.137179
2023/06/10 21:00:59.896, True, 0.674, 0.138018
2023/06/10 21:01:00.400, True, 0.663, 0.137026
2023/06/10 21:01:00.904, True, 0.663, 0.138247
2023/06/10 21:01:01.400, True, 1.011, 0.137331
2023/06/10 21:01:01.904, True, 0.664, 0.137407
2023/06/10 21:01:02.408, True, 0.663, 0.136187
2023/06/10 21:01:02.903, True, 0.674, 0.136492
2023/06/10 21:01:03.408, True, 0.995, 0.136797
2023/06/10 21:01:03.912, True, 0.663, 0.138170
2023/06/10 21:01:04.408, True, 0.674, 0.135119
2023/06/10 21:01:04.912, True, 0.663, 0.134966
2023/06/10 21:01:05.416, True, 0.663, 0.135882
2023/06/10 21:01:05.912, True, 0.674, 0.137942
2023/06/10 21:01:06.416, True, 0.663, 0.136187
2023/06/10 21:01:06.920, True, 0.995, 0.135042
2023/06/10 21:01:07.416, True, 0.674, 0.135271
2023/06/10 21:01:07.919, True, 0.663, 0.136187
2023/06/10 21:01:08.424, True, 0.663, 0.138933
2023/06/10 21:01:08.920, True, 0.674, 0.136416
2023/06/10 21:01:09.423, True, 0.663, 0.136645
2023/06/10 21:01:09.927, True, 0.995, 0.138399
2023/06/10 21:01:10.432, True, 0.663, 0.136721
2023/06/10 21:01:10.927, True, 0.674, 0.138247
2023/06/10 21:01:11.432, True, 0.664, 0.139391
2023/06/10 21:01:11.935, True, 0.663, 0.135424
2023/06/10 21:01:12.431, True, 0.674, 0.136492
2023/06/10 21:01:12.936, True, 0.996, 0.138552
2023/06/10 21:01:13.439, True, 0.663, 0.139696
2023/06/10 21:01:13.944, True, 0.663, 0.137636
2023/06/10 21:01:14.440, True, 0.675, 0.137789
2023/06/10 21:01:14.944, True, 0.662, 0.136721
2023/06/10 21:01:15.448, True, 0.995, 0.139925
2023/06/10 21:01:15.944, True, 0.674, 0.139162
2023/06/10 21:01:16.447, True, 0.663, 0.139391
2023/06/10 21:01:16.951, True, 0.664, 0.138323
2023/06/10 21:01:17.448, True, 0.674, 0.138628
2023/06/10 21:01:17.951, True, 0.662, 0.138323
2023/06/10 21:01:18.456, True, 0.996, 0.137255
2023/06/10 21:01:18.951, True, 0.673, 0.138705
2023/06/10 21:01:19.456, True, 0.663, 0.138018
2023/06/10 21:01:19.960, True, 0.663, 0.138552
2023/06/10 21:01:20.456, True, 0.674, 0.139620
2023/06/10 21:01:20.959, True, 0.995, 0.138094
2023/06/10 21:01:21.464, True, 0.665, 0.136873
2023/06/10 21:01:21.960, True, 0.673, 0.139849
2023/06/10 21:01:22.463, True, 0.663, 0.141146
2023/06/10 21:01:22.968, True, 0.663, 0.140154
2023/06/10 21:01:23.463, True, 0.674, 0.142901
2023/06/10 21:01:23.968, True, 0.663, 0.140230
2023/06/10 21:01:24.471, True, 0.663, 0.138857
2023/06/10 21:01:24.976, True, 0.995, 0.137331
2023/06/10 21:01:25.472, True, 0.674, 0.139544
2023/06/10 21:01:25.976, True, 0.663, 0.139696
2023/06/10 21:01:26.480, True, 0.663, 0.139773
2023/06/10 21:01:26.976, True, 0.674, 0.141909
2023/06/10 21:01:27.480, True, 0.995, 0.141222
2023/06/10 21:01:27.983, True, 0.663, 0.140230
2023/06/10 21:01:28.480, True, 0.674, 0.141299
2023/06/10 21:01:28.984, True, 0.663, 0.141299
2023/06/10 21:01:29.488, True, 0.663, 0.143053
2023/06/10 21:01:29.983, True, 0.674, 0.143359
2023/06/10 21:01:30.487, True, 0.664, 0.141375
2023/06/10 21:01:30.992, True, 0.994, 0.143740
2023/06/10 21:01:31.487, True, 0.674, 0.143282
2023/06/10 21:01:31.992, True, 0.663, 0.144961
2023/06/10 21:01:32.488, True, 0.675, 0.146792
2023/06/10 21:01:32.991, True, 0.663, 0.145571
2023/06/10 21:01:33.495, True, 0.664, 0.147860
2023/06/10 21:01:33.000, True, 0.993, 0.146029
2023/06/10 21:01:34.496, True, 0.675, 0.147936
2023/06/10 21:01:34.000, True, 0.662, 0.147402
2023/06/10 21:01:35.503, True, 0.663, 0.146410
2023/06/10 21:01:35.000, True, 0.674, 0.148089
2023/06/10 21:01:36.504, True, 0.663, 0.148775
2023/06/10 21:01:37.007, True, 0.663, 0.149538
2023/06/10 21:01:37.503, True, 0.674, 0.148623
2023/06/10 21:01:38.008, True, 0.995, 0.147173
2023/06/10 21:01:38.511, True, 0.663, 0.149386
2023/06/10 21:01:39.007, True, 0.674, 0.148394
2023/06/10 21:01:39.512, True, 0.663, 0.147402
2023/06/10 21:01:40.015, True, 0.663, 0.148699
2023/06/10 21:01:40.511, True, 0.674, 0.147707
2023/06/10 21:01:41.015, True, 0.663, 0.148547
2023/06/10 21:01:41.519, True, 0.664, 0.148165
2023/06/10 21:01:42.016, True, 0.673, 0.151827
2023/06/10 21:01:42.519, True, 0.663, 0.148013
2023/06/10 21:01:43.023, True, 0.995, 0.147707
2023/06/10 21:01:43.519, True, 0.675, 0.148699
2023/06/10 21:01:44.023, True, 0.663, 0.149996
2023/06/10 21:01:44.527, True, 0.662, 0.149615
2023/06/10 21:01:45.031, True, 0.664, 0.148394
2023/06/10 21:01:45.527, True, 0.674, 0.147250
2023/06/10 21:01:46.031, True, 0.662, 0.150912
2023/06/10 21:01:46.535, True, 0.664, 0.148318
2023/06/10 21:01:47.031, True, 1.011, 0.148013
2023/06/10 21:01:47.535, True, 0.663, 0.150301
2023/06/10 21:01:48.039, True, 0.664, 0.149157
2023/06/10 21:01:48.535, True, 0.674, 0.149767
2023/06/10 21:01:49.039, True, 0.663, 0.149157
2023/06/10 21:01:49.543, True, 0.663, 0.148699
2023/06/10 21:01:50.039, True, 1.012, 0.150225
2023/06/10 21:01:50.543, True, 0.663, 0.151904
2023/06/10 21:01:51.047, True, 0.663, 0.147784
2023/06/10 21:01:51.543, True, 0.673, 0.150912
2023/06/10 21:01:52.047, True, 0.664, 0.151980
2023/06/10 21:01:52.551, True, 0.995, 0.150149
2023/06/10 21:01:53.047, True, 0.673, 0.149386
2023/06/10 21:01:53.551, True, 0.663, 0.150607
2023/06/10 21:01:54.055, True, 0.664, 0.150530
2023/06/10 21:01:54.551, True, 0.673, 0.150378
2023/06/10 21:01:55.055, True, 0.663, 0.149310
2023/06/10 21:01:55.559, True, 0.995, 0.151598
2023/06/10 21:01:56.055, True, 0.674, 0.149767
2023/06/10 21:01:56.559, True, 0.663, 0.149157
2023/06/10 21:01:57.063, True, 0.663, 0.151904
2023/06/10 21:01:57.559, True, 0.674, 0.151522
2023/06/10 21:01:58.063, True, 0.663, 0.152590
2023/06/10 21:01:58.559, True, 0.674, 0.150378
2023/06/10 21:01:59.063, True, 0.995, 0.152819
2023/06/10 21:01:59.567, True, 0.663, 0.152285
2023/06/10 21:02:00.063, True, 0.674, 0.152667
2023/06/10 21:02:00.567, True, 0.663, 0.149233
2023/06/10 21:02:01.071, True, 0.663, 0.153506
2023/06/10 21:02:01.575, True, 0.663, 0.150759
2023/06/10 21:02:02.071, True, 0.674, 0.150225
2023/06/10 21:02:02.575, True, 0.663, 0.151827
2023/06/10 21:02:03.079, True, 0.995, 0.150072
2023/06/10 21:02:03.575, True, 0.674, 0.151369
2023/06/10 21:02:04.079, True, 0.663, 0.152285
2023/06/10 21:02:04.583, True, 0.663, 0.150912
2023/06/10 21:02:05.079, True, 0.674, 0.152361
2023/06/10 21:02:05.583, True, 0.663, 0.153277
2023/06/10 21:02:06.087, True, 0.663, 0.152056
2023/06/10 21:02:06.591, True, 0.663, 0.151598
2023/06/10 21:02:07.087, True, 0.674, 0.153048
2023/06/10 21:02:07.591, True, 0.664, 0.152438
2023/06/10 21:02:08.095, True, 0.663, 0.152361
2023/06/10 21:02:08.591, True, 0.674, 0.153048
2023/06/10 21:02:09.095, True, 0.995, 0.152667
2023/06/10 21:02:09.599, True, 0.664, 0.151446
2023/06/10 21:02:10.095, True, 0.673, 0.151598
2023/06/10 21:02:10.599, True, 0.663, 0.153429
2023/06/10 21:02:11.104, True, 0.663, 0.153582
2023/06/10 21:02:11.599, True, 0.674, 0.150454
2023/06/10 21:02:12.103, True, 0.995, 0.151675
2023/06/10 21:02:12.607, True, 0.663, 0.152514
2023/06/10 21:02:13.103, True, 0.674, 0.152056
2023/06/10 21:02:13.607, True, 0.663, 0.152514
2023/06/10 21:02:14.111, True, 0.664, 0.151293
2023/06/10 21:02:14.607, True, 0.673, 0.153353
2023/06/10 21:02:15.111, True, 0.664, 0.151904
2023/06/10 21:02:15.615, True, 0.662, 0.152514
2023/06/10 21:02:16.111, True, 1.011, 0.151675
2023/06/10 21:02:16.615, True, 0.663, 0.151141
2023/06/10 21:02:17.119, True, 0.663, 0.153048
2023/06/10 21:02:17.615, True, 0.674, 0.152819
2023/06/10 21:02:18.119, True, 0.995, 0.152132
2023/06/10 21:02:18.623, True, 0.663, 0.152361
2023/06/10 21:02:19.119, True, 0.674, 0.150912
2023/06/10 21:02:19.623, True, 0.663, 0.152514
2023/06/10 21:02:20.127, True, 0.664, 0.152819
2023/06/10 21:02:20.623, True, 0.673, 0.150225
2023/06/10 21:02:21.127, True, 0.663, 0.154269
2023/06/10 21:02:21.631, True, 0.997, 0.151446
2023/06/10 21:02:22.127, True, 0.673, 0.152743
2023/06/10 21:02:22.631, True, 0.663, 0.151141
2023/06/10 21:02:23.135, True, 0.664, 0.151217
2023/06/10 21:02:23.631, True, 0.673, 0.151980
2023/06/10 21:02:24.135, True, 0.663, 0.153353
2023/06/10 21:02:24.639, True, 0.663, 0.150683
2023/06/10 21:02:25.135, True, 0.674, 0.153048
2023/06/10 21:02:25.639, True, 0.995, 0.152972
2023/06/10 21:02:26.143, True, 0.663, 0.150835
2023/06/10 21:02:26.639, True, 0.674, 0.153124
2023/06/10 21:02:27.143, True, 0.663, 0.151141
2023/06/10 21:02:27.647, True, 0.664, 0.151980
2023/06/10 21:02:28.142, True, 0.674, 0.152667
2023/06/10 21:02:28.647, True, 0.664, 0.151598
2023/06/10 21:02:29.151, True, 0.663, 0.152819
2023/06/10 21:02:29.655, True, 0.663, 0.153048
2023/06/10 21:02:30.151, True, 0.674, 0.152819
2023/06/10 21:02:30.655, True, 0.663, 0.153506
2023/06/10 21:02:31.159, True, 0.995, 0.151293
2023/06/10 21:02:31.663, True, 0.663, 0.151446
2023/06/10 21:02:32.159, True, 0.675, 0.150988
2023/06/10 21:02:32.663, True, 0.662, 0.151064
2023/06/10 21:02:33.167, True, 0.663, 0.152590
2023/06/10 21:02:33.671, True, 0.663, 0.149310
2023/06/10 21:02:34.167, True, 0.674, 0.151064
2023/06/10 21:02:34.671, True, 0.663, 0.151980
2023/06/10 21:02:35.175, True, 0.995, 0.152438
2023/06/10 21:02:35.671, True, 0.674, 0.152285
2023/06/10 21:02:36.175, True, 0.664, 0.151751
2023/06/10 21:02:36.679, True, 0.663, 0.154269
2023/06/10 21:02:37.175, True, 0.673, 0.152361
2023/06/10 21:02:37.679, True, 0.663, 0.152514
2023/06/10 21:02:38.175, True, 0.674, 0.153277
2023/06/10 21:02:38.679, True, 0.663, 0.152361
2023/06/10 21:02:39.183, True, 0.995, 0.151904
2023/06/10 21:02:39.679, True, 0.674, 0.152056
2023/06/10 21:02:40.183, True, 0.663, 0.149157
2023/06/10 21:02:40.687, True, 0.663, 0.151751
2023/06/10 21:02:41.183, True, 0.674, 0.153887
2023/06/10 21:02:41.687, True, 0.663, 0.150912
2023/06/10 21:02:42.191, True, 0.663, 0.150988
2023/06/10 21:02:42.695, True, 0.663, 0.151751
2023/06/10 21:02:43.191, True, 0.674, 0.152743
2023/06/10 21:02:43.695, True, 0.663, 0.150530
2023/06/10 21:02:44.199, True, 0.663, 0.152895
2023/06/10 21:02:44.695, True, 0.674, 0.153201
2023/06/10 21:02:45.199, True, 0.995, 0.154421
2023/06/10 21:02:45.702, True, 0.663, 0.151827
2023/06/10 21:02:46.199, True, 0.674, 0.150530
2023/06/10 21:02:46.703, True, 0.663, 0.152819
2023/06/10 21:02:47.207, True, 0.663, 0.152209
2023/06/10 21:02:47.703, True, 0.674, 0.152819
2023/06/10 21:02:48.207, True, 0.663, 0.152590
2023/06/10 21:02:48.711, True, 0.663, 0.150378
2023/06/10 21:02:49.207, True, 0.674, 0.152667
2023/06/10 21:02:49.711, True, 0.995, 0.152590
2023/06/10 21:02:50.215, True, 0.663, 0.150530
2023/06/10 21:02:50.711, True, 0.674, 0.152972
2023/06/10 21:02:51.215, True, 0.663, 0.151980
2023/06/10 21:02:51.719, True, 0.663, 0.151064
2023/06/10 21:02:52.215, True, 0.674, 0.150912
2023/06/10 21:02:52.719, True, 0.663, 0.150301
2023/06/10 21:02:53.223, True, 0.995, 0.152361
2023/06/10 21:02:53.719, True, 0.674, 0.153277
2023/06/10 21:02:54.223, True, 0.663, 0.150530
2023/06/10 21:02:54.727, True, 0.663, 0.153201
2023/06/10 21:02:55.223, True, 0.674, 0.150454
2023/06/10 21:02:55.727, True, 0.663, 0.151904
2023/06/10 21:02:56.231, True, 0.663, 0.148547
2023/06/10 21:02:56.727, True, 1.011, 0.150607
2023/06/10 21:02:57.231, True, 0.663, 0.152590
2023/06/10 21:02:57.735, True, 0.663, 0.153048
2023/06/10 21:02:58.231, True, 0.674, 0.151293
2023/06/10 21:02:58.735, True, 0.663, 0.151446
2023/06/10 21:02:59.239, True, 0.663, 0.150759
2023/06/10 21:02:59.735, True, 0.674, 0.150607
2023/06/10 21:03:00.239, True, 0.995, 0.150225
2023/06/10 21:03:00.743, True, 0.663, 0.152667
2023/06/10 21:03:01.239, True, 0.674, 0.151141
2023/06/10 21:03:01.743, True, 0.663, 0.152056
2023/06/10 21:03:02.247, True, 0.663, 0.152209
2023/06/10 21:03:02.743, True, 0.674, 0.150607
2023/06/10 21:03:03.247, True, 0.663, 0.151751
2023/06/10 21:03:03.743, True, 0.674, 0.153201
2023/06/10 21:03:04.247, True, 0.663, 0.151904
2023/06/10 21:03:04.751, True, 0.663, 0.148547
2023/06/10 21:03:05.255, True, 0.664, 0.152132
2023/06/10 21:03:05.751, True, 0.673, 0.153658
2023/06/10 21:03:06.255, True, 0.663, 0.150912
2023/06/10 21:03:06.759, True, 0.663, 0.152590
2023/06/10 21:03:07.255, True, 1.011, 0.153811
2023/06/10 21:03:07.759, True, 0.663, 0.152514
2023/06/10 21:03:08.255, True, 0.674, 0.151522
2023/06/10 21:03:08.759, True, 0.663, 0.151064
2023/06/10 21:03:09.263, True, 0.663, 0.152590
2023/06/10 21:03:09.759, True, 0.674, 0.150835
2023/06/10 21:03:10.263, True, 0.663, 0.151751
2023/06/10 21:03:10.767, True, 0.663, 0.151751
2023/06/10 21:03:11.263, True, 0.674, 0.151064
2023/06/10 21:03:11.766, True, 0.663, 0.151446
2023/06/10 21:03:12.271, True, 0.663, 0.150988
2023/06/10 21:03:12.767, True, 1.011, 0.151827
2023/06/10 21:03:13.270, True, 0.663, 0.151369
2023/06/10 21:03:13.774, True, 0.663, 0.152361
2023/06/10 21:03:14.271, True, 0.674, 0.149767
2023/06/10 21:03:14.774, True, 0.663, 0.151980
2023/06/10 21:03:15.279, True, 0.663, 0.150835
2023/06/10 21:03:15.775, True, 0.674, 0.150225
2023/06/10 21:03:16.279, True, 0.663, 0.153201
2023/06/10 21:03:16.783, True, 0.664, 0.149691
2023/06/10 21:03:17.279, True, 0.673, 0.151675
2023/06/10 21:03:17.783, True, 0.664, 0.149996
2023/06/10 21:03:18.287, True, 0.662, 0.150225
2023/06/10 21:03:18.783, True, 0.674, 0.149462
2023/06/10 21:03:19.287, True, 0.664, 0.149462
2023/06/10 21:03:19.791, True, 0.663, 0.149615
2023/06/10 21:03:20.287, True, 0.673, 0.152590
2023/06/10 21:03:20.791, True, 0.664, 0.148699
2023/06/10 21:03:21.295, True, 0.663, 0.149767
2023/06/10 21:03:21.799, True, 0.663, 0.150530
2023/06/10 21:03:22.295, True, 0.674, 0.151369
2023/06/10 21:03:22.799, True, 0.663, 0.150378
2023/06/10 21:03:23.303, True, 0.663, 0.150988
2023/06/10 21:03:23.799, True, 0.674, 0.150225
2023/06/10 21:03:24.302, True, 0.995, 0.154574
2023/06/10 21:03:24.807, True, 0.663, 0.151369
2023/06/10 21:03:25.303, True, 0.674, 0.151598
2023/06/10 21:03:25.807, True, 0.663, 0.148928
2023/06/10 21:03:26.311, True, 0.663, 0.150454
2023/06/10 21:03:26.807, True, 0.674, 0.150301
2023/06/10 21:03:27.311, True, 0.663, 0.149615
2023/06/10 21:03:27.815, True, 0.663, 0.151446
2023/06/10 21:03:28.311, True, 0.674, 0.148470
2023/06/10 21:03:28.815, True, 0.995, 0.151217
2023/06/10 21:03:29.319, True, 0.663, 0.147860
2023/06/10 21:03:29.815, True, 0.675, 0.150378
2023/06/10 21:03:30.319, True, 0.662, 0.151217
2023/06/10 21:03:30.823, True, 0.663, 0.152743
2023/06/10 21:03:31.319, True, 0.674, 0.151904
2023/06/10 21:03:31.823, True, 0.663, 0.149844
2023/06/10 21:03:32.327, True, 0.663, 0.150225
2023/06/10 21:03:32.823, True, 0.674, 0.148318
2023/06/10 21:03:33.327, True, 0.663, 0.150225
2023/06/10 21:03:33.831, True, 0.663, 0.151827
2023/06/10 21:03:34.327, True, 0.674, 0.150912
2023/06/10 21:03:34.831, True, 0.663, 0.151980
2023/06/10 21:03:35.335, True, 0.664, 0.150607
2023/06/10 21:03:35.831, True, 0.673, 0.151369
2023/06/10 21:03:36.335, True, 0.663, 0.150225
2023/06/10 21:03:36.839, True, 0.995, 0.151064
2023/06/10 21:03:37.335, True, 0.674, 0.149767
2023/06/10 21:03:37.839, True, 0.663, 0.151980
2023/06/10 21:03:38.343, True, 0.663, 0.150683
2023/06/10 21:03:38.838, True, 0.674, 0.150149
2023/06/10 21:03:39.342, True, 0.663, 0.150683
2023/06/10 21:03:39.847, True, 0.664, 0.149386
2023/06/10 21:03:40.342, True, 0.673, 0.150683
2023/06/10 21:03:40.847, True, 0.663, 0.149462
2023/06/10 21:03:41.351, True, 0.663, 0.152819
2023/06/10 21:03:41.847, True, 0.674, 0.149004
2023/06/10 21:03:42.351, True, 0.663, 0.151980
2023/06/10 21:03:42.855, True, 0.995, 0.152743
2023/06/10 21:03:43.350, True, 0.674, 0.150683
2023/06/10 21:03:43.855, True, 0.663, 0.151217
2023/06/10 21:03:44.359, True, 0.663, 0.151369
2023/06/10 21:03:44.855, True, 0.674, 0.149615
2023/06/10 21:03:45.359, True, 0.663, 0.152514
2023/06/10 21:03:45.863, True, 0.663, 0.150454
2023/06/10 21:03:46.359, True, 0.674, 0.150530
2023/06/10 21:03:46.863, True, 0.663, 0.149996
2023/06/10 21:03:47.367, True, 0.664, 0.150149
2023/06/10 21:03:47.863, True, 0.673, 0.150759
2023/06/10 21:03:48.367, True, 0.663, 0.149691
2023/06/10 21:03:48.871, True, 0.996, 0.150072
2023/06/10 21:03:49.366, True, 0.673, 0.150072
2023/06/10 21:03:49.870, True, 0.663, 0.151675
2023/06/10 21:03:50.375, True, 0.663, 0.150225
2023/06/10 21:03:50.871, True, 0.674, 0.148775
2023/06/10 21:03:51.375, True, 0.663, 0.149233
2023/06/10 21:03:51.879, True, 0.663, 0.149996
2023/06/10 21:03:52.374, True, 0.674, 0.150683
2023/06/10 21:03:52.879, True, 0.663, 0.148699
2023/06/10 21:03:53.383, True, 0.663, 0.149462
2023/06/10 21:03:53.887, True, 0.663, 0.153201
2023/06/10 21:03:54.383, True, 0.674, 0.149004
2023/06/10 21:03:54.887, True, 0.663, 0.148928
2023/06/10 21:03:55.391, True, 0.663, 0.149767
2023/06/10 21:03:55.887, True, 0.674, 0.149615
2023/06/10 21:03:56.391, True, 0.663, 0.148394
2023/06/10 21:03:56.895, True, 0.663, 0.148013
2023/06/10 21:03:57.391, True, 0.674, 0.149996
2023/06/10 21:03:57.895, True, 0.663, 0.150835
2023/06/10 21:03:58.399, True, 0.663, 0.148623
2023/06/10 21:03:58.895, True, 0.674, 0.148318
2023/06/10 21:03:59.399, True, 0.663, 0.151980
2023/06/10 21:03:59.903, True, 0.663, 0.148318
2023/06/10 21:04:00.399, True, 0.674, 0.148165
2023/06/10 21:04:00.903, True, 0.663, 0.150530
2023/06/10 21:04:01.407, True, 0.663, 0.151446
2023/06/10 21:04:01.903, True, 0.674, 0.148775
2023/06/10 21:04:02.407, True, 0.664, 0.149767
2023/06/10 21:04:02.903, True, 1.010, 0.149081
2023/06/10 21:04:03.407, True, 0.663, 0.149920
2023/06/10 21:04:03.911, True, 0.663, 0.151293
2023/06/10 21:04:04.415, True, 0.664, 0.149844
2023/06/10 21:04:04.911, True, 0.673, 0.150301
2023/06/10 21:04:05.415, True, 0.663, 0.148013
2023/06/10 21:04:05.918, True, 0.664, 0.151217
2023/06/10 21:04:06.415, True, 0.673, 0.147097
2023/06/10 21:04:06.919, True, 0.663, 0.150225
2023/06/10 21:04:07.423, True, 0.663, 0.150530
2023/06/10 21:04:07.919, True, 0.675, 0.147936
2023/06/10 21:04:08.423, True, 0.662, 0.149996
2023/06/10 21:04:08.927, True, 0.995, 0.148241
2023/06/10 21:04:09.423, True, 0.674, 0.148775
2023/06/10 21:04:09.927, True, 0.663, 0.148699
2023/06/10 21:04:10.431, True, 0.663, 0.149538
2023/06/10 21:04:10.927, True, 0.674, 0.150378
2023/06/10 21:04:11.431, True, 0.663, 0.149386
2023/06/10 21:04:11.935, True, 0.663, 0.150607
2023/06/10 21:04:12.439, True, 0.664, 0.150225
2023/06/10 21:04:12.935, True, 0.673, 0.149767
2023/06/10 21:04:13.439, True, 0.663, 0.148928
2023/06/10 21:04:13.943, True, 0.663, 0.149920
2023/06/10 21:04:14.439, True, 0.674, 0.148775